Weather History for LTBS - March, 2013

Change the Weather History Date:

Tuesday, March 12, 2013

  Actual Average Record
Temperature  
Mean Temperature 63 °F -  
Max Temperature 73 °F 64 °F 73 °F (2013)
Min Temperature 53 °F 45 °F 33 °F (2005)
Degree Days  
Heating Degree Days 2    
Growing Degree Days 13 (Base 50)    
Moisture  
Dew Point 55 °F    
Average Humidity 81    
Maximum Humidity 100    
Minimum Humidity 41    
Precipitation  
Precipitation 0.00 in - - ()
Sea Level Pressure  
Sea Level Pressure 29.69 in    
Wind  
Wind Speed 6 mph ()    
Max Wind Speed 18 mph    
Max Gust Speed 36 mph    
Visibility 6.1 miles    
Events      
Averages and records for this station are not official NWS values.
T = Trace of Precipitation, MM = Missing Value Source: Averaged Metar Reports

Daily Weather History Graph

Daily Weather History Graph

Search for Another Location

Airport or City:

Trip Planner

Search our weather history database for the weather conditions in past years. The results will help you decide how hot, cold, wet, or windy it might be!

Date:

Astronomy

Mar. 12, 2013 Rise Set
Actual Time 6:20 AM EET 6:09 PM EET
Civil Twilight 5:54 AM EET 6:35 PM EET
Nautical Twilight 5:24 AM EET 7:05 PM EET
Astronomical Twilight 4:54 AM EET 7:35 PM EET
Moon 6:17 AM EET (3/12) 7:01 PM EET (3/12)
Length of Visible Light 12h 40m
Length of Day
11h 49m
New Moon, 0% of the Moon is Illuminated
Mar 12
New Moon
Mar 19
First Quarter
Mar 27
Full
Apr 3
Last Quarter
Apr 10
New

Hourly Weather History & Observations

Time (EET) Temp. Dew Point Humidity Pressure Visibility Wind Dir Wind Speed Gust Speed Precip Events Conditions
12:20 AM 59.0 °F 55.4 °F 88% 29.80 in 6.2 mi ENE 4.6 mph - N/A   Mostly Cloudy
12:50 AM 57.2 °F 55.4 °F 94% 29.77 in 6.2 mi NNE 4.6 mph - N/A   Mostly Cloudy
1:20 AM 57.2 °F 55.4 °F 94% 29.77 in 6.2 mi Variable 2.3 mph - N/A   Mostly Cloudy
1:50 AM 57.2 °F 55.4 °F 94% 29.77 in 6.2 mi NE 3.5 mph - N/A   Mostly Cloudy
2:00 AM 56 °F 54 °F 92% 29.78 in 6 mi NE 3.5 mph - -   Scattered Clouds
2:20 AM 55.4 °F 53.6 °F 94% 29.77 in 6.2 mi Variable 2.3 mph - N/A   Mostly Cloudy
2:50 AM 55.4 °F 53.6 °F 94% 29.77 in 6.2 mi NNE 4.6 mph - N/A   Mostly Cloudy
3:20 AM 55.4 °F 53.6 °F 94% 29.74 in 6.2 mi NE 6.9 mph - N/A   Mostly Cloudy
3:50 AM 53.6 °F 53.6 °F 100% 29.74 in 6.2 mi NE 4.6 mph - N/A   Mostly Cloudy
4:20 AM 55.4 °F 53.6 °F 94% 29.74 in 6.2 mi Variable 2.3 mph - N/A   Mostly Cloudy
4:50 AM 55.4 °F 53.6 °F 94% 29.71 in 6.2 mi East 4.6 mph - N/A   Mostly Cloudy
5:20 AM 55.4 °F 53.6 °F 94% 29.74 in 6.2 mi NE 5.8 mph - N/A   Mostly Cloudy
5:50 AM 53.6 °F 53.6 °F 100% 29.71 in 6.2 mi NNE 5.8 mph - N/A   Mostly Cloudy
6:20 AM 53.6 °F 51.8 °F 94% 29.71 in 6.2 mi NE 5.8 mph - N/A   Mostly Cloudy
6:50 AM 53.6 °F 51.8 °F 94% 29.71 in 6.2 mi North 4.6 mph - N/A   Mostly Cloudy
7:20 AM 55.4 °F 53.6 °F 94% 29.74 in 6.2 mi ENE 5.8 mph - N/A   Mostly Cloudy
7:50 AM 55.4 °F 53.6 °F 94% 29.71 in 6.2 mi NE 4.6 mph - N/A   Mostly Cloudy
8:00 AM 56 °F 54 °F 90% 29.73 in 6 mi NE 4.6 mph - -   Scattered Clouds
8:20 AM 57.2 °F 53.6 °F 88% 29.71 in 6.2 mi NNE 6.9 mph - N/A   Mostly Cloudy
8:50 AM 57.2 °F 53.6 °F 88% 29.68 in 6.2 mi East 6.9 mph - N/A   Mostly Cloudy
9:20 AM 59.0 °F 55.4 °F 88% 29.68 in 6.2 mi Variable 3.5 mph - N/A   Mostly Cloudy
9:50 AM 59.0 °F 55.4 °F 88% 29.68 in 6.2 mi East 8.1 mph - N/A   Mostly Cloudy
10:20 AM 60.8 °F 55.4 °F 82% 29.68 in 6.2 mi NNE 4.6 mph - N/A   Mostly Cloudy
10:50 AM 60.8 °F 55.4 °F 82% 29.65 in 6.2 mi NE 8.1 mph - N/A   Mostly Cloudy
11:20 AM 60.8 °F 53.6 °F 77% 29.65 in 6.2 mi NNE 10.4 mph - N/A   Mostly Cloudy
11:50 AM 62.6 °F 55.4 °F 77% 29.65 in 6.2 mi NNE 9.2 mph - N/A   Mostly Cloudy
12:20 PM 62.6 °F 55.4 °F 77% 29.62 in 6.2 mi NNE 8.1 mph - N/A   Mostly Cloudy
12:50 PM 62.6 °F 53.6 °F 72% 29.62 in 6.2 mi NNW 8.1 mph - N/A   Mostly Cloudy
1:20 PM 62.6 °F 55.4 °F 77% 29.59 in 6.2 mi Variable 4.6 mph - N/A   Mostly Cloudy
1:50 PM 69.8 °F 50.0 °F 49% 29.53 in 6.2 mi SSE 13.8 mph - N/A   Mostly Cloudy
2:00 PM 70 °F 51 °F 41% 29.55 in 6 mi SSE 13.8 mph - -   Scattered Clouds
2:20 PM 73.4 °F 50.0 °F 44% 29.59 in 6.2 mi South 16.1 mph 27.6 mph N/A   Mostly Cloudy
2:50 PM 71.6 °F 53.6 °F 53% 29.59 in 6.2 mi South 17.3 mph 28.8 mph N/A   Mostly Cloudy
3:20 PM 69.8 °F 53.6 °F 56% 29.59 in 6.2 mi South 18.4 mph 35.7 mph N/A   Mostly Cloudy
3:50 PM 69.8 °F 53.6 °F 56% 29.62 in 6.2 mi South 16.1 mph - N/A   Mostly Cloudy
4:20 PM 69.8 °F 53.6 °F 56% 29.62 in 6.2 mi South 16.1 mph - N/A   Mostly Cloudy
4:50 PM 69.8 °F 55.4 °F 60% 29.62 in 6.2 mi SSE 13.8 mph - N/A   Mostly Cloudy
5:20 PM 68.0 °F 53.6 °F 60% 29.62 in 6.2 mi South 12.7 mph - N/A   Mostly Cloudy
5:50 PM 66.2 °F 55.4 °F 68% 29.62 in 6.2 mi South 10.4 mph - N/A   Mostly Cloudy
6:20 PM 64.4 °F 57.2 °F 77% 29.65 in 6.2 mi South 8.1 mph - N/A   Mostly Cloudy
6:50 PM 64.4 °F 57.2 °F 77% 29.65 in 6.2 mi SSW 11.5 mph - N/A   Mostly Cloudy
7:20 PM 62.6 °F 57.2 °F 82% 29.68 in 6.2 mi South 4.6 mph - N/A   Mostly Cloudy
7:50 PM 62.6 °F 57.2 °F 82% 29.68 in 6.2 mi Variable 3.5 mph - N/A   Mostly Cloudy
8:00 PM 63 °F 58 °F 78% 29.70 in 6 mi SE 3.5 mph - -   Scattered Clouds
8:20 PM 62.6 °F 57.2 °F 82% 29.71 in 6.2 mi South 9.2 mph - N/A   Mostly Cloudy
8:50 PM 62.6 °F 57.2 °F 82% 29.71 in 6.2 mi SSW 3.5 mph - N/A   Mostly Cloudy
9:20 PM 62.6 °F 59.0 °F 88% 29.74 in 6.2 mi Variable 4.6 mph - N/A   Mostly Cloudy
9:50 PM 62.6 °F 59.0 °F 88% 29.74 in 4.3 mi WSW 9.2 mph - N/A   Mostly Cloudy
10:20 PM 62.6 °F 59.0 °F 88% 29.74 in 4.3 mi West 8.1 mph - N/A   Mostly Cloudy
10:50 PM 60.8 °F 59.0 °F 94% 29.74 in 6.2 mi Variable 2.3 mph - N/A   Mostly Cloudy
11:20 PM 60.8 °F 59.0 °F 94% 29.77 in 6.2 mi Variable 2.3 mph - N/A   Mostly Cloudy
11:50 PM 60.8 °F 57.2 °F 88% 29.77 in 6.2 mi Variable 2.3 mph - N/A   Mostly Cloudy